Location: Passo Costalunga
(46.4000°N, 11.6000°E)
Time: 01:20:43
(UTC+00:00)

Daily predictions for brighter satellites

Satellite Brightness Start Highest point End
(mag) Time Altitude Azimuth Time Altitude Azimuth Time Altitude Azimuth
USA 267 3.9 01:43:53 10° NE 01:48:35 50° ENE 01:48:35 50° ENE
Resurs 1-4 Rocket 4.5 01:56:29 10° N 01:57:29 15° N 01:57:29 15° N
CENTAUR R/B 4.0 01:55:45 10° NW 02:03:15 45° NE 02:11:35 10° ESE
Cosmos 2360 Rocket 4.5 02:11:14 10° NNW 02:22:23 10° SE 02:22:25 10° SE
ADEOS II 4.0 02:15:37 10° N 02:17:29 21° N 02:17:29 21° N
IDEFIX/ARIANE 42P 3.9 02:16:53 10° NNE 02:19:41 33° NNE 02:19:41 33° NNE
USA 234 3.3 02:18:27 10° ESE 02:24:09 70° ESE 02:24:09 70° ESE
CZ-4C R/B 4.3 02:25:01 14° SE 02:26:29 15° ESE 02:29:30 10° ENE
Cosmos 1553 Rocket 4.1 02:32:42 72° NNE 02:32:42 72° NNE 02:38:17 10° N
Cosmos 1417 Rocket 4.5 02:35:32 80° ENE 02:35:32 80° ENE 02:41:47 10° N
Lacrosse 5 2.7 02:40:09 46° E 02:40:09 46° E 02:43:52 10° ESE
Cosmos 2082 Rocket 4.1 02:42:36 19° NNW 02:42:36 19° NNW 02:45:25 10° N
MSX 4.0 02:39:17 10° NNE 02:44:10 65° N 02:44:10 65° N
Cosmos 2333 Rocket 3.2 02:39:53 10° NNW 02:45:25 45° NE 02:50:56 10° SE
Cosmos 2221 4.0 02:53:28 30° N 02:53:28 30° N 02:55:44 10° N
Cosmos 2219 Rocket 3.0 02:54:55 10° NNW 03:00:25 49° ENE 03:05:54 10° SE
CZ-2C R/B 2.6 02:57:02 10° NNE 03:01:44 62° E 03:02:02 60° ESE
Cosmos 1606 3.4 03:12:56 54° NE 03:12:56 54° NE 03:16:16 10° NNE
Sich 1 4.1 03:08:36 10° N 03:12:53 46° ENE 03:17:06 10° SSE
USA 238 DEB 3.8 03:07:27 10° NW 03:14:44 85° SW 03:22:19 10° SE
USA 238 3.8 03:07:34 10° NW 03:14:50 86° SW 03:22:25 10° SE
COSMOS 2428 3.4 03:11:10 10° NNW 03:16:49 55° ENE 03:22:25 10° SE
ATLAS 3B R/B 4.3 03:12:00 10° NNW 03:18:03 31° NNE 03:24:18 10° E
ATLAS 5 CENTAUR R/B 3.1 03:19:17 22° SSE 03:20:42 27° ESE 03:24:21 10° ENE
S3M 4.0 03:21:13 53° WSW 03:22:05 58° WNW 03:28:12 10° N
SeaSat 1 4.2 03:18:34 10° ESE 03:22:54 32° NE 03:27:16 10° NNW
ARIANE 5 R/B 3.5 03:19:57 10° N 03:23:22 31° NW 03:23:22 31° NW
Cosmos 1745 Rocket 4.1 03:19:46 10° NNW 03:25:48 50° W 03:26:32 47° WSW
Helios 1B 4.4 03:25:10 25° SSE 03:27:39 86° WSW 03:32:02 10° NNW
CZ-4C R/B 3.3 03:30:56 61° NNE 03:30:56 61° NNE 03:34:00 10° N
USA 267 3.7 03:27:02 10° NE 03:33:16 49° NNW 03:35:57 32° WNW
FENGYUN 3A 3.9 03:29:03 10° NNE 03:34:30 72° ESE 03:39:55 10° S
Cosmos 2322 3.6 03:31:45 10° NNW 03:37:27 75° WSW 03:43:04 10° SSE
Cosmos 1709 Rocket 3.9 03:31:20 10° NNW 03:37:40 69° W 03:43:58 10° S
H-2A R/B 2.4 03:37:26 10° SSE 03:41:35 63° ENE 03:45:42 10° N
Cosmos 1151 Rocket 4.4 03:38:22 10° SSE 03:42:24 40° E 03:46:25 10° NNE
NOSS 3-2 (A) 4.1 03:35:59 10° NW 03:43:22 54° WSW 03:51:37 10° SSE
SWAS 4.4 03:40:59 10° NNW 03:45:21 89° NE 03:49:41 10° SSE
COSMOS 2487 3.1 03:50:12 39° NNW 03:50:12 39° NNW 03:52:50 10° N
Cosmos 1833 4.5 03:48:29 37° W 03:50:08 47° WNW 03:55:35 10° NNE
Cosmos 2344 3.7 03:46:42 31° WSW 03:50:24 59° NW 03:58:26 10° NE
Cosmos 1633 Rocket 3.7 03:46:42 10° N 03:51:03 58° ENE 03:55:21 10° SSE
Geosat 4.0 03:49:02 10° NNE 03:54:06 83° ESE 03:58:04 17° SSW
CENTAUR R/B 3.2 03:46:26 10° NW 03:54:31 66° WSW 04:03:19 10° SSE
Cosmos 2251 Rocket 3.7 03:53:53 33° WSW 03:56:00 52° WNW 04:01:17 10° NNE
Cosmos 614 Rocket 3.9 03:54:14 23° SSW 03:57:30 73° WNW 04:02:44 10° NNE
Meteor 1-20 Rocket 4.2 03:53:20 10° NNW 03:59:04 85° W 04:04:53 10° S
Cosmos 2360 Rocket 4.1 04:04:24 12° SSW 04:04:24 12° SSW 04:04:57 10° SSW
IDEFIX/ARIANE 42P 4.4 03:58:13 10° NNW 04:00:30 14° NW 04:00:30 14° NW
Cosmos 1933 3.2 03:58:06 14° SSW 04:01:30 80° W 04:05:35 10° N
ISS -3.7 04:00:41 42° NW 04:01:41 78° NNE 04:05:03 10° ESE
H-2A R/B 4.4 03:52:49 21° WSW 04:02:44 35° SSW 04:08:19 10° SE
ALOS 2.2 03:58:18 10° N 04:02:57 66° WNW 04:07:02 13° SSW
CZ-2C R/B 4.3 04:02:00 10° NNW 04:04:14 21° NW 04:04:14 21° NW
Cosmos 2237 Rocket 3.0 04:02:36 10° NNW 04:08:11 53° ENE 04:13:42 10° SE
USA 234 4.0 04:02:54 10° S 04:08:30 30° SW 04:11:34 21° W
Meteor 1-31 Rocket 3.1 04:06:54 10° NNE 04:10:46 66° ESE 04:14:33 10° S
Iridium 51 3.9 04:07:52 10° N 04:11:39 80° W 04:15:10 10° S
Cosmos 407 Rocket 3.4 04:07:21 10° SSW 04:12:33 89° ESE 04:17:42 10° NNE
CZ-4C R/B 2.0 04:10:13 19° SW 04:13:51 83° NW 04:19:51 10° NE
PSLV R/B 4.3 04:11:30 10° N 04:15:28 34° WNW 04:17:21 23° WSW
USA 276 2.4 04:16:02 33° WNW 04:17:11 55° NNW 04:20:21 10° ENE
Nadezhda 1 Rocket 4.5 04:14:00 10° S 04:20:02 64° E 04:26:12 10° NNE
Lacrosse 5 2.7 04:19:24 22° W 04:21:33 30° SW 04:25:53 10° S
NOSS 3-4 (A) 3.3 04:16:30 12° SW 04:21:55 84° NW 04:28:16 10° NE
NOSS 3-4 (C) 3.3 04:16:34 12° SW 04:22:01 85° NW 04:28:22 10° NE
Cosmos 192 4.5 04:19:22 10° NNW 04:24:10 51° WSW 04:28:56 10° S
Cosmos 1190 Rocket 4.1 04:18:53 10° SSW 04:24:12 86° ESE 04:29:32 10° NNE
Cosmos 1328 Rocket 3.4 04:20:10 10° S 04:24:28 87° W 04:28:49 10° N
NOSS 3-2 (C) 4.3 04:18:04 10° NW 04:25:22 48° WSW 04:33:29 10° S
Cosmos 1515 Rocket 4.3 04:22:25 10° S 04:26:40 56° E 04:30:58 10° NNE
Cosmos 2227 Rocket 3.8 04:22:01 10° S 04:27:11 38° ESE 04:32:23 10° NE
SJ-12 3.9 04:25:15 10° NNE 04:29:20 90° E 04:33:23 10° SSW
Cosmos 2333 Rocket 2.9 04:24:27 10° NW 04:29:32 33° WSW 04:34:36 10° SSW
SL-16 R/B 4.0 04:25:56 10° NNW 04:31:04 33° NE 04:36:08 10° ESE
Cosmos 1484 Rocket 3.4 04:29:08 10° N 04:32:29 32° WNW 04:35:27 12° SW
Cosmos 1437 Rocket 2.8 04:30:09 10° SSW 04:34:10 61° WNW 04:38:10 10° N
Cosmos 1470 Rocket 3.5 04:31:25 10° N 04:35:48 84° W 04:40:06 10° S
CZ-4B R/B 3.7 04:31:51 10° NNE 04:36:22 64° ESE 04:40:49 10° S
ATLAS 2AS CENTAUR R/B 3.1 04:29:14 10° SSW 04:37:11 85° SE 04:45:01 10° NE
Cosmos 1689 Rocket 4.4 04:35:07 10° SE 04:37:35 27° ENE 04:40:04 10° N
CZ-2C R/B 3.8 04:36:21 10° NNW 04:39:29 18° WNW 04:41:25 14° W
CZ-4B R/B 1.0 04:37:07 10° S 04:40:11 69° WSW 04:43:14 10° NNW
Cosmos 2327 Rocket 4.4 04:34:38 10° N 04:40:46 87° W 04:46:51 10° S
COSMO-SKYMED 1 2.5 04:36:50 10° S 04:41:07 63° WSW 04:45:27 10° NNW
deb Chang Zheng 4 4.1 04:37:44 10° NNE 04:42:00 61° ESE 04:46:16 10° S
Envisat 3.9 04:37:12 10° NNE 04:42:12 53° E 04:47:08 10° S
Cosmos 2297 Rocket 2.8 04:36:42 10° S 04:42:14 62° ESE 04:47:50 10° NNE
Cosmos 1782 2.9 04:40:16 10° SSW 04:44:06 50° WNW 04:47:59 10° N
Cosmos 2219 Rocket 3.0 04:39:19 10° NW 04:44:06 29° WSW 04:48:53 10° SSW
NOSS 7 (H) 4.3 04:42:45 10° SW 04:46:14 81° SE 04:49:11 10° NE
Cosmos 1295 Rocket 4.5 04:40:49 10° N 04:46:57 89° E 04:53:03 10° S
Cosmos 1140 Rocket 3.6 04:44:57 10° SW 04:50:01 53° WNW 04:55:07 10° NNE
Sich 1 4.4 04:47:10 10° NW 04:50:10 18° W 04:53:09 10° SW
Cosmos 1500 3.1 04:49:02 10° NNW 04:52:49 65° W 04:56:35 10° S
Meteor 1-26 Rocket 4.5 04:47:23 10° SSW 04:52:58 52° WNW 04:58:45 10° N
Cosmos 1980 3.7 04:47:28 10° NNW 04:53:07 70° WSW 04:58:45 10° SSE
ERS-2 2.6 04:50:56 10° SSE 04:54:31 64° ENE 04:58:09 10° N
Cosmos 1933 Rocket 3.5 04:51:44 10° NNW 04:56:13 78° W 05:00:40 10° S
Cosmos 2074 Rocket 4.3 04:52:34 10° NNW 04:58:21 43° W 05:04:08 10° SSW
SeaSat 1 2.8 04:55:36 10° S 05:00:17 44° WSW 05:05:01 10° NW
MOS 1 Rocket 3.7 04:56:18 10° SSW 05:00:24 38° W 05:04:44 10° NNW
COSMOS 2428 3.7 04:56:07 10° NW 05:00:43 25° WSW 05:05:17 10° SSW
Cosmos 2228 Rocket 3.9 04:56:28 10° S 05:00:58 59° E 05:05:28 10° NNE
BREEZE M DEB (TANK) 2.9 04:59:44 10° WNW 05:02:44 75° SSW 05:11:59 10° ESE
BREEZE-M DEB (TANK) 2.8 05:01:12 10° WNW 05:04:58 45° N 05:07:09 10° ENE
ATLAS 5 CENTAUR R/B 2.2 05:01:20 10° WSW 05:05:06 37° NW 05:09:23 10° NNE
YAOGAN 6 2.5 05:01:50 10° NNE 05:05:22 90° E 05:08:50 10° SSW
Cosmos 2154 Rocket 4.1 04:59:50 10° NNW 05:05:56 57° W 05:12:02 10° S
ADEOS 4.1 05:03:58 10° N 05:08:46 38° WNW 05:13:32 10° SW
ATLAS 3B R/B 2.9 05:02:32 10° NW 05:09:33 87° SW 05:16:53 10° SE
Okean O Rocket 4.4 05:06:55 10° NE 05:10:36 25° E 05:14:15 10° SSE
